Location: ?????????
(55.6553°N, 38.9075°E)
Time: 23:07:52
(UTC+00:00)

NOSS 8 (F) - Pass Details

Date: 18 October 2019
Orbit: 397 x 1779 km, 63.3° (Epoch: 12 November)

Event Time Altitude Azimuth Distance (km) Brightness Sun altitude
Exits shadow 02:34:48 23° 258° (WSW) 901 5.3 -12.7°
Maximum altitude 02:36:29 55° 328° (NNW) 502 4.4 -12.5°
Drops below altitude 10° 02:39:49 10° 48° (NE) 1,597 7.9 -12.0°
Sets 02:42:09 0° 53° (NE) 2,601 9.2 -11.7°
